Regional Weather Roundup
Issued by NWS Grand Forks, ND

Home | Current Version | Previous Version | Text Only | Print | Product List | Glossary Off
Versions: 1 2 3 4 5 6 7 8 9 10 11 12 13 14 15 16 17 18 19 20 21 22 23 24 25 26 27 28 29 30 31 32 33 34 35 36 37 38 39 40 41 42 43 44 45 46 47 48 49 50

000
ASUS43 KFGF 302010
RWRFGF
PRAIRIE TO PINES  WEATHER ROUNDUP
NATIONAL WEATHER SERVICE EASTERN NORTH DAKOTA/GRAND FORKS ND
300 PM CDT WED JUL 30 2014

 **SATELLITE DATA USED TO AUGMENT SKY COVER AT AUTOMATED STATIONS**
 *****  WEATHER ACROSS EASTERN NORTH DAKOTA  *****

CITY           SKY/WX    TMP DP  RH WIND       PRES   REMARKS
GRAND FORKS    MOSUNNY   80  56  43 NW5       30.07F
GRAND FRKS AFB SUNNY     80  56  43 NW9       30.09S
GRAND FRKS NWS   N/A     82 N/A N/A N6          N/A
DEVILS LAKE    MOSUNNY   77  55  47 N10       30.11S
FARGO          MOSUNNY   80  52  37 N8        30.08F
WAHPETON ARPT  CLEAR     79  46  31 NW8       30.10F
$$

 ***** WEATHER ACROSS CENTRAL AND WESTERN NORTH DAKOTA  *****

CITY           SKY/WX    TMP DP  RH WIND       PRES   REMARKS
BISMARCK       PTSUNNY   82  56  40 VRB7      30.13F
MINOT          PTSUNNY   79  54  41 NW8       30.14S
JAMESTOWN      SUNNY     79  50  36 NE6       30.13S
MINOT AFB      MOSUNNY   78  56  47 N10       30.14R
GARRISON         N/A     78  60  53 SE3       30.15S
WILLISTON      SUNNY     83  48  29 NE13      30.17S
DICKINSON      MOSUNNY   81  51  35 MISG      30.16F
HETTINGER      MOSUNNY   81  51  35 VRB3      30.18S
$$

 *****  OTHER AIRPORT OBSERVATIONS IN OUR AREA  *****

CITY           SKY/WX    TMP DP  RH WIND       PRES   REMARKS
WALHALLA       FAIR      79  54  41 N5          N/A
GRAFTON AIRPOR FAIR      81  54  39 N9        30.07S
VALLEY CITY AR FAIR      79  50  36 N5        30.12F
CANDO          FAIR      75  57  53 NW8       30.13S
CAVALIER APRT  FAIR      81  50  34 NW6       30.08S
GWINNER        PTCLDY    79  54  41 CALM      30.13S
ROLLA            N/A     75  52  43 N13       30.15S
 ***** THE ABOVE OBSERVATIONS ARE NON NWS ARE NOT QUALITY
       CONTROLLED AND MAY MIS-REPORT RAIN FOR SNOW...
$$

  *****  WEATHER ACROSS NORTHERN MINNESOTA  *****

CITY           SKY/WX    TMP DP  RH WIND       PRES   REMARKS
FLAG ISLAND    SUNNY     75  55  50 NW12      30.01F
WARROAD        SUNNY     79  59  50 W5        30.05S
ROSEAU         SUNNY     79  61  53 NW7       30.05F
HALLOCK        SUNNY     81  52  36 NW8       30.06F
THF RVR FALLS  SUNNY     75  52  43 NW9       30.08F
BAUDETTE       SUNNY     79  56  45 NW12      30.04F
WASKISH        MOSUNNY   77  61  57 W3        30.05S
CROOKSTON      SUNNY     77  55  47 NW7       30.09S
$$
  *****  WEATHER ACROSS CENTRAL AND WEST MINNESOTA  *****

CITY           SKY/WX    TMP DP  RH WIND       PRES   REMARKS
FOSSTON        MOSUNNY   75  55  50 W7        30.09F
BEMIDJI        SUNNY     76  56  50 NW10      30.07F
PARK RAPIDS    MOSUNNY   78  52  40 NW10      30.08S
ELBOW LAKE     MOCLDY    76  56  51 NW6       30.11S
WADENA         MOSUNNY   75  55  50 W7        30.09F
DETROIT LAKES  SUNNY     75  52  43 NW9       30.12S
MOORHEAD       SUNNY     79  55  44 N7        30.09F
FERGUS FALLS   MOSUNNY   77  50  38 NW10      30.09F
MORRIS MN      SUNNY     79  55  44 NW7       30.10F
STAPLES        MOSUNNY   79  50  36 W10G17    30.08F
$$
  *****  WEATHER ELSEWHERE ACROSS MINNESOTA  *****

CITY           SKY/WX    TMP DP  RH WIND       PRES   REMARKS
DULUTH         PTSUNNY   78  56  46 NW13G23   29.99F
INTRNTL FALLS  MOSUNNY   77  56  48 NW10G22   30.00F
ELY            LGT RAIN  72  57  60 N12G22    29.98R
CLOQUET        MOSUNNY   77  55  47 NW10      30.01F
WHEATON        MOSUNNY   75  55  50 W6        30.12F
BRAINERD       MOSUNNY   77  54  44 N10       30.07S
HIBBING        MOSUNNY   79  57  46 N16       30.01F
ALEXANDRIA     MOSUNNY   76  53  44 NW9       30.12S
SAINT CLOUD    SUNNY     81  51  35 NW12      30.06F
MINNEAPOLIS    MOSUNNY   82  54  37 W13G18    30.05F
$$

  *****  WEATHER ACROSS SOUTH DAKOTA  *****

CITY           SKY/WX    TMP DP  RH WIND       PRES   REMARKS
SIOUX FALLS    MOSUNNY   79  54  41 S6        30.14S
BROOKINGS      NOT AVBL
WATERTOWN      SUNNY     77  53  43 W8        30.14S
HURON          SUNNY     81  53  37 VRB5      30.12F
SISSETON         N/A     79  55  43 N6        30.10F
ABERDEEN       MOSUNNY   80  55  42 NE6       30.11F
MITCHELL       MOSUNNY   80  53  39 CALM      30.13F
PIERRE         MOSUNNY   86  54  33 VRB6      30.09F
MOBRIDGE       MOSUNNY   83  57  41 VRB3      30.10S
RAPID CITY     MOSUNNY   83  46  27 N9        30.18S
$$

  *****  SOME WEATHER IN NEARBY STATES *****

CITY           SKY/WX    TMP DP  RH WIND       PRES   REMARKS
GLASGOW MT     SUNNY     89  45  21 S9        30.12F
GREAT FALLS MT MOSUNNY   91  37  15 VRB6      30.12F
CHEYENNE WY    CLOUDY    59  54  83 SE5       30.38S
SCOTTSBLUFF NE CLOUDY    75  54  47 MISG      30.26S
OMAHA NE       MOSUNNY   81  53  37 N8        30.12F
DES MOINES IA  MOSUNNY   82  55  39 NE7       30.09F
DAVENPORT IA   MOSUNNY   77  59  53 W8        30.06F
CHICAGO IL     PTSUNNY   76  57  51 NE8       30.02R
EAU CLAIRE WI  MOSUNNY   77  54  44 W10       30.05S
LA CROSSE WI   SUNNY     77  56  48 NW6       30.05F
$$

  *****  SOME NATIONAL WEATHER *****

CITY           SKY/WX    TMP DP  RH WIND       PRES   REMARKS
LA GUARDIA NY  MOSUNNY   80  45  28 W9        29.99F
RALEIGH NC     MOSUNNY   74  63  68 NE7       30.06F THUNDER
ATLANTA GA     MOSUNNY   80  56  43 E7        30.04S
NEW ORLEANS LA MOSUNNY   86  61  42 N14       30.03F
OKLAHOMA CITY  LGT RAIN  72  68  88 SE12      30.00F
ALBUQUERQUE NM MOSUNNY   83  55  38 SW7       30.19F
SALT LAKE CITY PTSUNNY   77  59  53 VRB3      30.20F
LOS ANGELES CA PTSUNNY   77  63  61 W14       29.96S
BOISE ID       PTSUNNY   89  47  23 NW5       30.11F
SEATTLE WA     MOSUNNY   77  57  50 W7        30.16S
$$

*** WEATHER ACROSS MANITOBA...SASKATCHEWAN AND ONTARIO ***
                ***ONTARIO***

CITY           SKY/WX    TMP DP  RH WIND       PRES   REMARKS
GERALDTON      PTSUNNY   63  55  77 N6        29.89
THUNDER BAY    PTSUNNY   68  59  73 E12       29.93S
SIOUX LOOKOUT  PTSUNNY   73  48  40 N10       29.99S
TORONTO        PTSUNNY   70  54  56 W7        29.94S
BIG TROUT LK   MOSUNNY   72  48  43 N7G18     29.97S
PICKLE LAKE    MOSUNNY   70  43  37 N9G21     29.96S
DRYDEN         SUNNY     75  50  41 N8G20     30.00S
KENORA         PTSUNNY   77  55  47 NW10      30.03S
$$
                *** MANITOBA***

CITY           SKY/WX    TMP DP  RH WIND       PRES   REMARKS
BRANDON        MOSUNNY   81  54  39 VRB5      30.11S
DAUPHIN        LGT RAIN  75  63  64 N21G37    30.08S
ISLAND LAKE    PTSUNNY   77  52  41 NE7       30.05S
PILOT MOUND      N/A     77  54  44 N6          N/A
THE PAS        MOSUNNY   84  54  34 N5        30.05F
THOMPSON       MOSUNNY   81  54  39 W2        30.05F
WINNIPEG       MOSUNNY   81  55  41 NW12      30.06S
LYNN LAKE      SUNNY     86  48  26 N7        30.07S
CHURCHILL      SUNNY     68  54  60 NE12      30.10F
GILLAM         CLOUDY    75  52  43 NE5       30.08S
$$
                ***SASKATCHEWAN***

CITY           SKY/WX    TMP DP  RH WIND       PRES   REMARKS
ESTEVAN        MOSUNNY   77  54  44 E6        30.17F
KINDERSLEY     MOSUNNY   82  64  54 S8        30.06S
LLOYDMINSTER   MOSUNNY   81  64  57 NE8       30.07R
PRINCE ALBERT  NOT AVBL
REGINA         MOSUNNY   79  55  44 SE10      30.14F
YORKTON        PTSUNNY   79  54  41 VRB5      30.13F
N. BATTLEFORD    N/A     79  63  57 SE16G23   30.08F
LA RONGE       MOSUNNY   84  54  34 SE7       30.08F
SASKATOON      PTSUNNY   79  61  53 SE20      30.10F
SWIFT CURRENT  SUNNY     88  54  31 S12       30.08F
$$
NOTE: THESE ARE AUTOMATED STATIONS WITH LIMITED QUALITY CONTROL
      "FAIR" INDICATES FEW OR NO CLOUDS BELOW 12,000 FEET WITH NO
      SIGNIFICANT WEATHER AND/OR OBSTRUCTIONS TO VISIBILITY.
      SKY/WX - SKY CONDITION AND SIGNIFICANT WEATHER.
      TMP - AIR TEMPERATURE.    DP   - DEWPOINT TEMPERATURE.
      RH  - RELATIVE HUMIDITY.  PRES - PRESSURE.
      HX  - HEAT INDEX.         WCI  - WIND CHILL INDEX.
$



USA.gov is the U.S. government's official web portal to all federal, state and local government web resources and services.